Year,Month,Day,Hour,Minute,Value (Times are PST for temperature in C)
2010,09,28,00,00,15.60
2010,09,28,00,01,15.60
2010,09,28,00,02,15.60
2010,09,28,00,03,15.60
2010,09,28,00,04,15.60
2010,09,28,00,05,15.60
2010,09,28,00,06,15.50
2010,09,28,00,07,15.50
2010,09,28,00,08,15.40
2010,09,28,00,09,15.40
2010,09,28,00,10,15.30
2010,09,28,00,11,15.30
2010,09,28,00,12,15.30
2010,09,28,00,13,15.20
2010,09,28,00,14,15.20
2010,09,28,00,15,15.20
2010,09,28,00,16,15.20
2010,09,28,00,17,15.10
2010,09,28,00,18,15.10
2010,09,28,00,19,15.00
2010,09,28,00,20,15.00
2010,09,28,00,21,14.90
2010,09,28,00,22,14.90
2010,09,28,00,23,14.80
2010,09,28,00,24,14.80
2010,09,28,00,25,14.80
2010,09,28,00,26,14.70
2010,09,28,00,27,14.70
2010,09,28,00,28,14.70
2010,09,28,00,29,14.70
2010,09,28,00,30,14.70
2010,09,28,00,31,14.70
2010,09,28,00,32,14.70
2010,09,28,00,33,14.60
2010,09,28,00,34,14.60
2010,09,28,00,35,14.60
2010,09,28,00,36,14.60
2010,09,28,00,37,14.60
2010,09,28,00,38,14.60
2010,09,28,00,39,14.60
2010,09,28,00,40,14.60
2010,09,28,00,41,14.60
2010,09,28,00,42,14.60
2010,09,28,00,43,14.60
2010,09,28,00,44,14.60
2010,09,28,00,45,14.60
2010,09,28,00,46,14.60
2010,09,28,00,47,14.60
2010,09,28,00,48,14.60
2010,09,28,00,49,14.60
2010,09,28,00,50,14.60
2010,09,28,00,51,14.70
2010,09,28,00,52,14.60
2010,09,28,00,53,14.60
2010,09,28,00,54,14.60
2010,09,28,00,55,14.70
2010,09,28,00,56,14.70
2010,09,28,00,57,14.70
2010,09,28,00,58,14.70
2010,09,28,00,59,14.70
2010,09,28,01,00,14.70
2010,09,28,01,01,14.70
2010,09,28,01,02,14.80
2010,09,28,01,03,14.80
2010,09,28,01,04,14.80
2010,09,28,01,05,14.80
2010,09,28,01,06,14.80
2010,09,28,01,07,14.80
2010,09,28,01,08,14.80
2010,09,28,01,09,14.80
2010,09,28,01,10,14.80
2010,09,28,01,11,14.80
2010,09,28,01,12,14.80
2010,09,28,01,13,14.80
2010,09,28,01,14,14.80
2010,09,28,01,15,14.80
2010,09,28,01,16,14.80
2010,09,28,01,17,14.80
2010,09,28,01,18,14.80
2010,09,28,01,19,14.80
2010,09,28,01,20,14.80
2010,09,28,01,21,14.80
2010,09,28,01,22,14.80
2010,09,28,01,23,14.80
2010,09,28,01,24,14.80
2010,09,28,01,25,14.80
2010,09,28,01,26,14.90
2010,09,28,01,27,14.90
2010,09,28,01,28,14.90
2010,09,28,01,29,14.90
2010,09,28,01,30,14.90
2010,09,28,01,31,14.90
2010,09,28,01,32,14.90
2010,09,28,01,33,14.90
2010,09,28,01,34,15.00
2010,09,28,01,35,15.00
2010,09,28,01,36,15.00
2010,09,28,01,37,15.00
2010,09,28,01,38,15.00
2010,09,28,01,39,15.00
2010,09,28,01,40,14.90
2010,09,28,01,41,14.90
2010,09,28,01,42,14.90
2010,09,28,01,43,14.90
2010,09,28,01,44,14.80
2010,09,28,01,45,14.90
2010,09,28,01,46,14.80
2010,09,28,01,47,14.80
2010,09,28,01,48,14.80
2010,09,28,01,49,14.80
2010,09,28,01,50,14.80
2010,09,28,01,51,14.80
2010,09,28,01,52,14.80
2010,09,28,01,53,14.80
2010,09,28,01,54,14.80
2010,09,28,01,55,14.80
2010,09,28,01,56,14.80
2010,09,28,01,57,14.80
2010,09,28,01,58,14.80
2010,09,28,01,59,14.80
2010,09,28,02,00,14.70
2010,09,28,02,01,14.70
2010,09,28,02,02,14.70
2010,09,28,02,03,14.70
2010,09,28,02,04,14.70
2010,09,28,02,05,14.70
2010,09,28,02,06,14.80
2010,09,28,02,07,14.80
2010,09,28,02,08,14.80
2010,09,28,02,09,14.80
2010,09,28,02,10,14.80
2010,09,28,02,11,14.80
2010,09,28,02,12,14.80
2010,09,28,02,13,14.80
2010,09,28,02,14,14.80
2010,09,28,02,15,14.80
2010,09,28,02,16,14.80
2010,09,28,02,17,14.80
2010,09,28,02,18,14.90
2010,09,28,02,19,14.90
2010,09,28,02,20,14.90
2010,09,28,02,21,14.90
2010,09,28,02,22,15.00
2010,09,28,02,23,15.00
2010,09,28,02,24,15.00
2010,09,28,02,25,15.00
2010,09,28,02,26,15.10
2010,09,28,02,27,15.10
2010,09,28,02,28,15.10
2010,09,28,02,29,15.10
2010,09,28,02,30,15.00
2010,09,28,02,31,15.00
2010,09,28,02,32,15.00
2010,09,28,02,33,14.90
2010,09,28,02,34,14.90
2010,09,28,02,35,14.90
2010,09,28,02,36,14.90
2010,09,28,02,37,14.80
2010,09,28,02,38,14.80
2010,09,28,02,39,14.80
2010,09,28,02,40,14.80
2010,09,28,02,41,14.80
2010,09,28,02,42,14.80
2010,09,28,02,43,14.80
2010,09,28,02,44,14.80
2010,09,28,02,45,14.80
2010,09,28,02,46,14.80
2010,09,28,02,47,14.80
2010,09,28,02,48,14.90
2010,09,28,02,49,14.90
2010,09,28,02,50,14.90
2010,09,28,02,51,14.90
2010,09,28,02,52,14.90
2010,09,28,02,53,14.90
2010,09,28,02,54,14.90
2010,09,28,02,55,15.00
2010,09,28,02,56,15.00
2010,09,28,02,57,15.10
2010,09,28,02,58,15.10
2010,09,28,02,59,15.10
2010,09,28,03,00,15.10
2010,09,28,03,01,15.10
2010,09,28,03,02,15.10
2010,09,28,03,03,15.10
2010,09,28,03,04,15.10
2010,09,28,03,05,15.10
2010,09,28,03,06,15.10
2010,09,28,03,07,15.20
2010,09,28,03,08,15.20
2010,09,28,03,09,15.20
2010,09,28,03,10,15.20
2010,09,28,03,11,15.30
2010,09,28,03,12,15.30
2010,09,28,03,13,15.30
2010,09,28,03,14,15.30
2010,09,28,03,15,15.30
2010,09,28,03,16,15.30
2010,09,28,03,17,15.30
2010,09,28,03,18,15.30
2010,09,28,03,19,15.30
2010,09,28,03,20,15.30
2010,09,28,03,21,15.30
2010,09,28,03,22,15.30
2010,09,28,03,23,15.30
2010,09,28,03,24,15.30
2010,09,28,03,25,15.30
2010,09,28,03,26,15.30
2010,09,28,03,27,15.30
2010,09,28,03,28,15.30
2010,09,28,03,29,15.30
2010,09,28,03,30,15.40
2010,09,28,03,31,15.40
2010,09,28,03,32,15.40
2010,09,28,03,33,15.40
2010,09,28,03,34,15.50
2010,09,28,03,35,15.50
2010,09,28,03,36,15.50
2010,09,28,03,37,15.50
2010,09,28,03,38,15.50
2010,09,28,03,39,15.50
2010,09,28,03,40,15.50
2010,09,28,03,41,15.60
2010,09,28,03,42,15.60
2010,09,28,03,43,15.60
2010,09,28,03,44,15.60
2010,09,28,03,45,15.60
2010,09,28,03,46,15.60
2010,09,28,03,47,15.60
2010,09,28,03,48,15.70
2010,09,28,03,49,15.70
2010,09,28,03,50,15.70
2010,09,28,03,51,15.70
2010,09,28,03,52,15.70
2010,09,28,03,53,15.70
2010,09,28,03,54,15.70
2010,09,28,03,55,15.80
2010,09,28,03,56,15.80
2010,09,28,03,57,15.80
2010,09,28,03,58,15.80
2010,09,28,03,59,15.80
2010,09,28,04,00,15.80
2010,09,28,04,01,15.80
2010,09,28,04,02,15.80
2010,09,28,04,03,15.80
2010,09,28,04,04,15.80
2010,09,28,04,05,15.80
2010,09,28,04,06,15.80
2010,09,28,04,07,15.80
2010,09,28,04,08,15.80
2010,09,28,04,09,15.80
2010,09,28,04,10,15.80
2010,09,28,04,11,15.80
2010,09,28,04,12,15.80
2010,09,28,04,13,15.80
2010,09,28,04,14,15.80
2010,09,28,04,15,15.80
2010,09,28,04,16,15.80
2010,09,28,04,17,15.80
2010,09,28,04,18,15.80
2010,09,28,04,19,15.80
2010,09,28,04,20,15.80
2010,09,28,04,21,15.80
2010,09,28,04,22,15.80
2010,09,28,04,23,15.80
2010,09,28,04,24,15.80
2010,09,28,04,25,15.80
2010,09,28,04,26,15.80
2010,09,28,04,27,15.80
2010,09,28,04,28,15.80
2010,09,28,04,29,15.80
2010,09,28,04,30,15.80
2010,09,28,04,31,15.80
2010,09,28,04,32,15.80
2010,09,28,04,33,15.80
2010,09,28,04,34,15.80
2010,09,28,04,35,15.80
2010,09,28,04,36,15.80
2010,09,28,04,37,15.80
2010,09,28,04,38,15.80
2010,09,28,04,39,15.80
2010,09,28,04,40,15.80
2010,09,28,04,41,15.80
2010,09,28,04,42,15.80
2010,09,28,04,43,15.80
2010,09,28,04,44,15.80
2010,09,28,04,45,15.80
2010,09,28,04,46,15.80
2010,09,28,04,47,15.80
2010,09,28,04,48,15.80
2010,09,28,04,49,15.80
2010,09,28,04,50,15.80
2010,09,28,04,51,15.80
2010,09,28,04,52,15.80
2010,09,28,04,53,15.80
2010,09,28,04,54,15.80
2010,09,28,04,55,15.80
2010,09,28,04,56,15.80
2010,09,28,04,57,15.80
2010,09,28,04,58,15.80
2010,09,28,04,59,15.80
2010,09,28,05,00,15.80
2010,09,28,05,01,15.80
2010,09,28,05,02,15.80
2010,09,28,05,03,15.80
2010,09,28,05,04,15.80
2010,09,28,05,05,15.80
2010,09,28,05,06,15.80
2010,09,28,05,07,15.80
2010,09,28,05,08,15.80
2010,09,28,05,09,15.80
2010,09,28,05,10,15.80
2010,09,28,05,11,15.80
2010,09,28,05,12,15.80
2010,09,28,05,13,15.80
2010,09,28,05,14,15.80
2010,09,28,05,15,15.80
2010,09,28,05,16,15.80
2010,09,28,05,17,15.90
2010,09,28,05,18,15.90
2010,09,28,05,19,15.90
2010,09,28,05,20,15.90
2010,09,28,05,21,15.90
2010,09,28,05,22,16.00
2010,09,28,05,23,16.10
2010,09,28,05,24,16.00
2010,09,28,05,25,16.10
2010,09,28,05,26,16.10
2010,09,28,05,27,15.90
2010,09,28,05,28,15.90
2010,09,28,05,29,15.90
2010,09,28,05,30,15.80
2010,09,28,05,31,15.80
2010,09,28,05,32,15.80
2010,09,28,05,33,15.80
2010,09,28,05,34,15.80
2010,09,28,05,35,15.80
2010,09,28,05,36,15.80
2010,09,28,05,37,15.80
2010,09,28,05,38,15.80
2010,09,28,05,39,15.80
2010,09,28,05,40,15.80
2010,09,28,05,41,15.80
2010,09,28,05,42,15.80
2010,09,28,05,43,15.80
2010,09,28,05,44,15.80
2010,09,28,05,45,15.80
2010,09,28,05,46,15.80
2010,09,28,05,47,15.80
2010,09,28,05,48,15.80
2010,09,28,05,49,15.80
2010,09,28,05,50,15.80
2010,09,28,05,51,15.80
2010,09,28,05,52,15.80
2010,09,28,05,53,15.80
2010,09,28,05,54,15.80
2010,09,28,05,55,15.80
2010,09,28,05,56,15.80
2010,09,28,05,57,15.80
2010,09,28,05,58,15.80
2010,09,28,05,59,15.80
2010,09,28,06,00,15.80
2010,09,28,06,01,15.80
2010,09,28,06,02,15.80
2010,09,28,06,03,15.90
2010,09,28,06,04,15.90
2010,09,28,06,05,15.90
2010,09,28,06,06,15.90
2010,09,28,06,07,15.90
2010,09,28,06,08,15.90
2010,09,28,06,09,15.90
2010,09,28,06,10,15.90
2010,09,28,06,11,16.00
2010,09,28,06,12,16.10
2010,09,28,06,13,16.10
2010,09,28,06,14,16.10
2010,09,28,06,15,16.10
2010,09,28,06,16,16.10
2010,09,28,06,17,16.10
2010,09,28,06,18,16.10
2010,09,28,06,19,16.10
2010,09,28,06,20,16.10
2010,09,28,06,21,16.00
2010,09,28,06,22,15.90
2010,09,28,06,23,15.90
2010,09,28,06,24,15.90
2010,09,28,06,25,16.00
2010,09,28,06,26,16.00
2010,09,28,06,27,16.10
2010,09,28,06,28,16.10
2010,09,28,06,29,16.10
2010,09,28,06,30,16.10
2010,09,28,06,31,16.10
2010,09,28,06,32,16.10
2010,09,28,06,33,16.00
2010,09,28,06,34,15.90
2010,09,28,06,35,15.90
2010,09,28,06,36,15.90
2010,09,28,06,37,15.80
2010,09,28,06,38,15.80
2010,09,28,06,39,15.90
2010,09,28,06,40,15.90
2010,09,28,06,41,15.90
2010,09,28,06,42,15.90
2010,09,28,06,43,15.90
2010,09,28,06,44,15.90
2010,09,28,06,45,16.00
2010,09,28,06,46,16.10
2010,09,28,06,47,16.10
2010,09,28,06,48,16.10
2010,09,28,06,49,16.10
2010,09,28,06,50,16.10
2010,09,28,06,51,16.10
2010,09,28,06,52,16.10
2010,09,28,06,53,16.00
2010,09,28,06,54,15.90
2010,09,28,06,55,15.90
2010,09,28,06,56,15.80
2010,09,28,06,57,15.80
2010,09,28,06,58,15.80
2010,09,28,06,59,15.80
2010,09,28,07,00,15.80
2010,09,28,07,01,15.80
2010,09,28,07,02,15.80
2010,09,28,07,03,15.80
2010,09,28,07,04,15.80
2010,09,28,07,05,15.80
2010,09,28,07,06,15.80
2010,09,28,07,07,15.80
2010,09,28,07,08,15.80
2010,09,28,07,09,15.80
2010,09,28,07,10,15.80
2010,09,28,07,11,15.80
2010,09,28,07,12,15.80
2010,09,28,07,13,15.80
2010,09,28,07,14,15.80
2010,09,28,07,15,15.80
2010,09,28,07,16,15.80
2010,09,28,07,17,15.80
2010,09,28,07,18,15.80
2010,09,28,07,19,15.80
2010,09,28,07,20,15.80
2010,09,28,07,21,15.80
2010,09,28,07,22,15.80
2010,09,28,07,23,15.80
2010,09,28,07,24,15.80
2010,09,28,07,25,15.80
2010,09,28,07,26,15.80
2010,09,28,07,27,15.80
2010,09,28,07,28,15.80
2010,09,28,07,29,15.80
2010,09,28,07,30,15.80
2010,09,28,07,31,15.80
2010,09,28,07,32,15.80
2010,09,28,07,33,15.80
2010,09,28,07,34,15.80
2010,09,28,07,35,15.80
2010,09,28,07,36,15.80
2010,09,28,07,37,15.80
2010,09,28,07,38,15.90
2010,09,28,07,39,15.90
2010,09,28,07,40,15.90
2010,09,28,07,41,15.90
2010,09,28,07,42,15.90
2010,09,28,07,43,15.80
2010,09,28,07,44,15.90
2010,09,28,07,45,15.90
2010,09,28,07,46,15.90
2010,09,28,07,47,15.90
2010,09,28,07,48,15.90
2010,09,28,07,49,15.90
2010,09,28,07,50,15.80
2010,09,28,07,51,15.80
2010,09,28,07,52,15.80
2010,09,28,07,53,15.80
2010,09,28,07,54,15.80
2010,09,28,07,55,15.80
2010,09,28,07,56,15.80
2010,09,28,07,57,15.90
2010,09,28,07,58,15.90
2010,09,28,07,59,16.00
2010,09,28,08,00,16.10
2010,09,28,08,01,16.10
2010,09,28,08,02,16.10
2010,09,28,08,03,16.10
2010,09,28,08,04,16.10
2010,09,28,08,05,16.10
2010,09,28,08,06,16.10
2010,09,28,08,07,16.20
2010,09,28,08,08,16.20
2010,09,28,08,09,16.20
2010,09,28,08,10,16.20
2010,09,28,08,11,16.20
2010,09,28,08,12,16.20
2010,09,28,08,13,16.20
2010,09,28,08,14,16.20
2010,09,28,08,15,16.30
2010,09,28,08,16,16.30
2010,09,28,08,17,16.40
2010,09,28,08,18,16.40
2010,09,28,08,19,16.40
2010,09,28,08,20,16.40
2010,09,28,08,21,16.40
2010,09,28,08,22,16.40
2010,09,28,08,23,16.40
2010,09,28,08,24,16.50
2010,09,28,08,25,16.60
2010,09,28,08,26,16.60
2010,09,28,08,27,16.60
2010,09,28,08,28,16.60
2010,09,28,08,29,16.60
2010,09,28,08,30,16.60
2010,09,28,08,31,16.60
2010,09,28,08,32,16.60
2010,09,28,08,33,16.60
2010,09,28,08,34,16.60
2010,09,28,08,35,16.60
2010,09,28,08,36,16.60
2010,09,28,08,37,16.60
2010,09,28,08,38,16.60
2010,09,28,08,39,16.50
2010,09,28,08,40,16.40
2010,09,28,08,41,16.50
2010,09,28,08,42,16.60
2010,09,28,08,43,16.60
2010,09,28,08,44,16.60
2010,09,28,08,45,16.60
2010,09,28,08,46,16.60
2010,09,28,08,47,16.60
2010,09,28,08,48,16.60
2010,09,28,08,49,16.60
2010,09,28,08,50,16.60
2010,09,28,08,51,16.60
2010,09,28,08,52,16.70
2010,09,28,08,53,16.70
2010,09,28,08,54,16.70
2010,09,28,08,55,16.70
2010,09,28,08,56,16.70
2010,09,28,08,57,16.70
2010,09,28,08,58,16.70
2010,09,28,08,59,16.70
2010,09,28,09,00,16.70
2010,09,28,09,01,16.70
2010,09,28,09,02,16.70
2010,09,28,09,03,16.70
2010,09,28,09,04,16.70
2010,09,28,09,05,16.70
2010,09,28,09,06,16.70
2010,09,28,09,07,16.70
2010,09,28,09,08,16.70
2010,09,28,09,09,16.70
2010,09,28,09,10,16.70
2010,09,28,09,11,16.70
2010,09,28,09,12,16.70
2010,09,28,09,13,16.70
2010,09,28,09,14,16.70
2010,09,28,09,15,16.70
2010,09,28,09,16,16.70
2010,09,28,09,17,16.70
2010,09,28,09,18,16.70
2010,09,28,09,19,16.70
2010,09,28,09,20,16.70
2010,09,28,09,21,16.70
2010,09,28,09,22,16.70
2010,09,28,09,23,16.70
2010,09,28,09,24,16.70
2010,09,28,09,25,16.70
2010,09,28,09,26,16.70
2010,09,28,09,27,16.70
2010,09,28,09,28,16.60
2010,09,28,09,29,16.60
2010,09,28,09,30,16.50
2010,09,28,09,31,16.40
2010,09,28,09,32,16.40
2010,09,28,09,33,16.40
2010,09,28,09,34,16.40
2010,09,28,09,35,16.30
2010,09,28,09,36,16.30
2010,09,28,09,37,16.30
2010,09,28,09,38,16.30
2010,09,28,09,39,16.30
2010,09,28,09,40,16.30
2010,09,28,09,41,16.30
2010,09,28,09,42,16.30
2010,09,28,09,43,16.20
2010,09,28,09,44,16.20
2010,09,28,09,45,16.10
2010,09,28,09,46,16.10
2010,09,28,09,47,16.10
2010,09,28,09,48,16.10
2010,09,28,09,49,16.10
2010,09,28,09,50,16.10
2010,09,28,09,51,16.10
2010,09,28,09,52,16.10
2010,09,28,09,53,16.10
2010,09,28,09,54,16.10
2010,09,28,09,55,16.10
2010,09,28,09,56,16.10
2010,09,28,09,57,16.10
2010,09,28,09,58,16.10
2010,09,28,09,59,16.10
2010,09,28,10,00,16.10
2010,09,28,10,01,16.10
2010,09,28,10,02,16.10
2010,09,28,10,03,16.10
2010,09,28,10,04,16.10
2010,09,28,10,05,16.10
2010,09,28,10,06,16.10
2010,09,28,10,07,16.10
2010,09,28,10,08,16.10
2010,09,28,10,09,16.10
2010,09,28,10,10,16.10
2010,09,28,10,11,16.10
2010,09,28,10,12,16.10
2010,09,28,10,13,16.10
2010,09,28,10,14,16.10
2010,09,28,10,15,16.10
2010,09,28,10,16,16.10
2010,09,28,10,17,16.10
2010,09,28,10,18,16.10
2010,09,28,10,19,16.10
2010,09,28,10,20,16.10
2010,09,28,10,21,16.10
2010,09,28,10,22,16.10
2010,09,28,10,23,16.10
2010,09,28,10,24,16.10
2010,09,28,10,25,16.10
2010,09,28,10,26,16.10
2010,09,28,10,27,16.10
2010,09,28,10,28,16.10
2010,09,28,10,29,16.10
2010,09,28,10,30,16.00
2010,09,28,10,31,15.90
2010,09,28,10,32,16.00
2010,09,28,10,33,16.10
2010,09,28,10,34,16.10
2010,09,28,10,35,16.10
2010,09,28,10,36,16.10
2010,09,28,10,37,16.10
2010,09,28,10,38,16.10
2010,09,28,10,39,16.10
2010,09,28,10,40,16.10
2010,09,28,10,41,16.10
2010,09,28,10,42,16.10
2010,09,28,10,43,16.20
2010,09,28,10,44,16.20
2010,09,28,10,45,16.30
2010,09,28,10,46,16.30
2010,09,28,10,47,16.30
2010,09,28,10,48,16.30
2010,09,28,10,49,16.30
2010,09,28,10,50,16.30
2010,09,28,10,51,16.30
2010,09,28,10,52,16.40
2010,09,28,10,53,16.40
2010,09,28,10,54,16.40
2010,09,28,10,55,16.40
2010,09,28,10,56,16.40
2010,09,28,10,57,16.40
2010,09,28,10,58,16.40
2010,09,28,10,59,16.40
2010,09,28,11,00,16.50
2010,09,28,11,01,16.60
2010,09,28,11,02,16.60
2010,09,28,11,03,16.60
2010,09,28,11,04,16.60
2010,09,28,11,05,16.60
2010,09,28,11,06,16.60
2010,09,28,11,07,16.60
2010,09,28,11,08,16.60
2010,09,28,11,09,16.60
2010,09,28,11,10,16.70
2010,09,28,11,11,16.70
2010,09,28,11,12,16.80
2010,09,28,11,13,16.80
2010,09,28,11,14,16.90
2010,09,28,11,15,16.90
2010,09,28,11,16,17.00
2010,09,28,11,17,17.00
2010,09,28,11,18,17.00
2010,09,28,11,19,17.10
2010,09,28,11,20,17.10
2010,09,28,11,21,17.20
2010,09,28,11,22,17.20
2010,09,28,11,23,17.20
2010,09,28,11,24,17.20
2010,09,28,11,25,17.30
2010,09,28,11,26,17.30
2010,09,28,11,27,17.30
2010,09,28,11,28,17.30
2010,09,28,11,29,17.30
2010,09,28,11,30,17.30
2010,09,28,11,31,17.30
2010,09,28,11,32,17.20
2010,09,28,11,33,17.20
2010,09,28,11,34,17.20
2010,09,28,11,35,17.20
2010,09,28,11,36,17.20
2010,09,28,11,37,17.20
2010,09,28,11,38,17.20
2010,09,28,11,39,17.20
2010,09,28,11,40,17.30
2010,09,28,11,41,17.30
2010,09,28,11,42,17.40
2010,09,28,11,43,17.50
2010,09,28,11,44,17.60
2010,09,28,11,45,17.70
2010,09,28,11,46,17.80
2010,09,28,11,47,17.90
2010,09,28,11,48,18.10
2010,09,28,11,49,18.20
2010,09,28,11,50,18.20
2010,09,28,11,51,18.20
2010,09,28,11,52,18.20
2010,09,28,11,53,18.20
2010,09,28,11,54,18.30
2010,09,28,11,55,18.40
2010,09,28,11,56,18.50
2010,09,28,11,57,18.50
2010,09,28,11,58,18.60
2010,09,28,11,59,18.60
2010,09,28,12,00,18.70
2010,09,28,12,01,18.70
2010,09,28,12,02,18.70
2010,09,28,12,03,18.70
2010,09,28,12,04,18.70
2010,09,28,12,05,18.70
2010,09,28,12,06,18.70
2010,09,28,12,07,18.80
2010,09,28,12,08,18.80
2010,09,28,12,09,18.80
2010,09,28,12,10,18.80
2010,09,28,12,11,18.90
2010,09,28,12,12,18.90
2010,09,28,12,13,18.80
2010,09,28,12,14,18.80
2010,09,28,12,15,18.90
2010,09,28,12,16,18.80
2010,09,28,12,17,18.80
2010,09,28,12,18,18.90
2010,09,28,12,19,18.90
2010,09,28,12,20,18.90
2010,09,28,12,21,18.90
2010,09,28,12,22,18.90
2010,09,28,12,23,19.00
2010,09,28,12,24,19.10
2010,09,28,12,25,19.20
2010,09,28,12,26,19.30
2010,09,28,12,27,19.40
2010,09,28,12,28,19.30
2010,09,28,12,29,19.20
2010,09,28,12,30,19.20
2010,09,28,12,31,19.30
2010,09,28,12,32,19.40
2010,09,28,12,33,19.50
2010,09,28,12,34,19.60
2010,09,28,12,35,19.60
2010,09,28,12,36,19.70
2010,09,28,12,37,19.80
2010,09,28,12,38,19.70
2010,09,28,12,39,19.70
2010,09,28,12,40,19.60
2010,09,28,12,41,19.60
2010,09,28,12,42,19.50
2010,09,28,12,43,19.40
2010,09,28,12,44,19.30
2010,09,28,12,45,19.30
2010,09,28,12,46,19.30
2010,09,28,12,47,19.40
2010,09,28,12,48,19.40
2010,09,28,12,49,19.50
2010,09,28,12,50,19.50
2010,09,28,12,51,19.60
2010,09,28,12,52,19.80
2010,09,28,12,53,19.90
2010,09,28,12,54,19.90
2010,09,28,12,55,19.90
2010,09,28,12,56,20.00
2010,09,28,12,57,20.20
2010,09,28,12,58,20.20
2010,09,28,12,59,20.20
2010,09,28,13,00,20.30
2010,09,28,13,01,20.40
2010,09,28,13,02,20.50
2010,09,28,13,03,20.50
2010,09,28,13,04,20.40
2010,09,28,13,05,20.40
2010,09,28,13,06,20.30
2010,09,28,13,07,20.30
2010,09,28,13,08,20.30
2010,09,28,13,09,20.40
2010,09,28,13,10,20.50
2010,09,28,13,11,20.50
2010,09,28,13,12,20.50
2010,09,28,13,13,20.70
2010,09,28,13,14,20.70
2010,09,28,13,15,20.80
2010,09,28,13,16,20.90
2010,09,28,13,17,20.90
2010,09,28,13,18,21.00
2010,09,28,13,19,21.00
2010,09,28,13,20,21.00
2010,09,28,13,21,20.90
2010,09,28,13,22,21.00
2010,09,28,13,23,21.00
2010,09,28,13,24,21.10
2010,09,28,13,25,21.10
2010,09,28,13,26,21.20
2010,09,28,13,27,21.30
2010,09,28,13,28,21.30
2010,09,28,13,29,21.20
2010,09,28,13,30,21.10
2010,09,28,13,31,21.10
2010,09,28,13,32,21.00
2010,09,28,13,33,21.00
2010,09,28,13,34,21.00
2010,09,28,13,35,21.10
2010,09,28,13,36,21.20
2010,09,28,13,37,21.20
2010,09,28,13,38,21.30
2010,09,28,13,39,21.40
2010,09,28,13,40,21.40
2010,09,28,13,41,21.40
2010,09,28,13,42,21.30
2010,09,28,13,43,21.30
2010,09,28,13,44,21.20
2010,09,28,13,45,21.20
2010,09,28,13,46,21.10
2010,09,28,13,47,21.10
2010,09,28,13,48,21.10
2010,09,28,13,49,21.10
2010,09,28,13,50,21.20
2010,09,28,13,51,21.20
2010,09,28,13,52,21.10
2010,09,28,13,53,21.10
2010,09,28,13,54,21.00
2010,09,28,13,55,21.00
2010,09,28,13,56,20.90
2010,09,28,13,57,20.90
2010,09,28,13,58,20.90
2010,09,28,13,59,21.00
2010,09,28,14,00,21.00
2010,09,28,14,01,21.00
2010,09,28,14,02,21.00
2010,09,28,14,03,20.90
2010,09,28,14,04,20.80
2010,09,28,14,05,20.80
2010,09,28,14,06,20.70
2010,09,28,14,07,20.70
2010,09,28,14,08,20.60
2010,09,28,14,09,20.60
2010,09,28,14,10,20.60
2010,09,28,14,11,20.60
2010,09,28,14,12,20.60
2010,09,28,14,13,20.50
2010,09,28,14,14,20.30
2010,09,28,14,15,20.10
2010,09,28,14,16,20.00
2010,09,28,14,17,19.80
2010,09,28,14,18,19.70
2010,09,28,14,19,19.70
2010,09,28,14,20,19.70
2010,09,28,14,21,19.70
2010,09,28,14,22,19.70
2010,09,28,14,23,19.70
2010,09,28,14,24,19.80
2010,09,28,14,25,19.80
2010,09,28,14,26,19.80
2010,09,28,14,27,19.90
2010,09,28,14,28,19.90
2010,09,28,14,29,20.00
2010,09,28,14,30,20.20
2010,09,28,14,31,20.30
2010,09,28,14,32,20.40
2010,09,28,14,33,20.50
2010,09,28,14,34,20.60
2010,09,28,14,35,20.70
2010,09,28,14,36,20.70
2010,09,28,14,37,20.80
2010,09,28,14,38,20.80
2010,09,28,14,39,20.90
2010,09,28,14,40,20.90
2010,09,28,14,41,20.90
2010,09,28,14,42,20.80
2010,09,28,14,43,20.80
2010,09,28,14,44,20.90
2010,09,28,14,45,21.00
2010,09,28,14,46,21.10
2010,09,28,14,47,21.20
2010,09,28,14,48,21.30
2010,09,28,14,49,21.30
2010,09,28,14,50,21.50
2010,09,28,14,51,21.60
2010,09,28,14,52,21.60
2010,09,28,14,53,21.60
2010,09,28,14,54,21.60
2010,09,28,14,55,21.60
2010,09,28,14,56,21.70
2010,09,28,14,57,21.70
2010,09,28,14,58,21.80
2010,09,28,14,59,21.80
2010,09,28,15,00,21.70
2010,09,28,15,01,21.70
2010,09,28,15,02,21.60
2010,09,28,15,03,21.60
2010,09,28,15,04,21.50
2010,09,28,15,05,21.40
2010,09,28,15,06,21.30
2010,09,28,15,07,21.30
2010,09,28,15,08,21.30
2010,09,28,15,09,21.20
2010,09,28,15,10,21.20
2010,09,28,15,11,21.20
2010,09,28,15,12,21.20
2010,09,28,15,13,21.20
2010,09,28,15,14,21.20
2010,09,28,15,15,21.20
2010,09,28,15,16,21.10
2010,09,28,15,17,21.10
2010,09,28,15,18,21.00
2010,09,28,15,19,21.00
2010,09,28,15,20,21.00
2010,09,28,15,21,21.00
2010,09,28,15,22,21.00
2010,09,28,15,23,21.10
2010,09,28,15,24,21.00
2010,09,28,15,25,20.90
2010,09,28,15,26,20.70
2010,09,28,15,27,20.50
2010,09,28,15,28,20.30
2010,09,28,15,29,20.20
2010,09,28,15,30,20.20
2010,09,28,15,31,20.20
2010,09,28,15,32,20.20
2010,09,28,15,33,20.20
2010,09,28,15,34,20.30
2010,09,28,15,35,20.40
2010,09,28,15,36,20.50
2010,09,28,15,37,20.60
2010,09,28,15,38,20.70
2010,09,28,15,39,20.80
2010,09,28,15,40,20.80
2010,09,28,15,41,20.90
2010,09,28,15,42,21.00
2010,09,28,15,43,21.00
2010,09,28,15,44,21.00
2010,09,28,15,45,21.00
2010,09,28,15,46,21.00
2010,09,28,15,47,21.00
2010,09,28,15,48,21.10
2010,09,28,15,49,21.10
2010,09,28,15,50,21.10
2010,09,28,15,51,21.10
2010,09,28,15,52,21.10
2010,09,28,15,53,21.10
2010,09,28,15,54,21.10
2010,09,28,15,55,20.90
2010,09,28,15,56,20.90
2010,09,28,15,57,20.90
2010,09,28,15,58,20.90
2010,09,28,15,59,20.90
2010,09,28,16,00,20.90
2010,09,28,16,01,20.90
2010,09,28,16,02,20.90
2010,09,28,16,03,20.90
2010,09,28,16,04,21.00
2010,09,28,16,05,21.10
2010,09,28,16,06,21.20
2010,09,28,16,07,21.30
2010,09,28,16,08,21.30
2010,09,28,16,09,21.30
2010,09,28,16,10,21.30
2010,09,28,16,11,21.30
2010,09,28,16,12,21.30
2010,09,28,16,13,21.30
2010,09,28,16,14,21.20
2010,09,28,16,15,21.10
2010,09,28,16,16,21.10
2010,09,28,16,17,21.10
2010,09,28,16,18,21.20
2010,09,28,16,19,21.20
2010,09,28,16,20,21.30
2010,09,28,16,21,21.30
2010,09,28,16,22,21.30
2010,09,28,16,23,21.30
2010,09,28,16,24,21.20
2010,09,28,16,25,21.10
2010,09,28,16,26,21.10
2010,09,28,16,27,21.00
2010,09,28,16,28,21.00
2010,09,28,16,29,21.00
2010,09,28,16,30,21.00
2010,09,28,16,31,20.90
2010,09,28,16,32,20.80
2010,09,28,16,33,20.70
2010,09,28,16,34,20.70
2010,09,28,16,35,20.80
2010,09,28,16,36,20.90
2010,09,28,16,37,20.90
2010,09,28,16,38,20.90
2010,09,28,16,39,21.00
2010,09,28,16,40,21.00
2010,09,28,16,41,21.00
2010,09,28,16,42,21.00
2010,09,28,16,43,21.00
2010,09,28,16,44,21.00
2010,09,28,16,45,20.90
2010,09,28,16,46,20.90
2010,09,28,16,47,20.80
2010,09,28,16,48,20.80
2010,09,28,16,49,20.80
2010,09,28,16,50,20.90
2010,09,28,16,51,20.90
2010,09,28,16,52,20.80
2010,09,28,16,53,20.70
2010,09,28,16,54,20.60
2010,09,28,16,55,20.50
2010,09,28,16,56,20.50
2010,09,28,16,57,20.50
2010,09,28,16,58,20.50
2010,09,28,16,59,20.50
2010,09,28,17,00,20.50
2010,09,28,17,01,20.40
2010,09,28,17,02,20.40
2010,09,28,17,03,20.30
2010,09,28,17,04,20.20
2010,09,28,17,05,20.20
2010,09,28,17,06,20.20
2010,09,28,17,07,20.30
2010,09,28,17,08,20.20
2010,09,28,17,09,20.20
2010,09,28,17,10,20.20
2010,09,28,17,11,20.20
2010,09,28,17,12,20.30
2010,09,28,17,13,20.30
2010,09,28,17,14,20.40
2010,09,28,17,15,20.40
2010,09,28,17,16,20.40
2010,09,28,17,17,20.30
2010,09,28,17,18,20.30
2010,09,28,17,19,20.30